Regional Weather Roundup
Issued by NWS

Home | Current Version | Previous Version | Graphics & Text | Print | Product List | Glossary On
Versions: 1 2 3 4 5 6 7 8 9 10 11 12 13 14 15 16 17 18 19 20 21 22 23 24 25 26 27 28 29 30 31 32 33 34 35 36 37 38 39 40 41 42 43 44 45 46 47 48 49 50
000
ASUS43 KDTX 230210
RWRMI
MICHIGAN HOURLY REGIONAL WEATHER ROUNDUP
NATIONAL WEATHER SERVICE DETROIT/PONTIAC MI
900 PM EST WED NOV 22 2017

NOTE: "FAIR" INDICATES FEW OR NO CLOUDS BELOW 12,000 FEET WITH NO
SIGNIFICANT WEATHER AND/OR OBSTRUCTION TO VISIBILITY.

MIZ047>049-052>055-059>063-066>070-074>076-081>083-230300-
SOUTHEAST LOWER MICHIGAN

CITY           SKY/WX    TMP DP  RH WIND       PRES   REMARKS
ADRIAN         CLOUDY    27  19  72 NW3       30.24F
ALMA           MOCLDY    29  23  79 S3        30.21F
ANN ARBOR      CLOUDY    22  19  89 CALM      30.23F
BAD AXE        CLOUDY    29  20  69 S6        30.20F WCI  23
CARO           CLOUDY    26  20  77 CALM      30.20F
DETROIT CITY   PTCLDY    28  19  69 CALM      30.24F
DETROIT        CLOUDY    30  18  60 CALM      30.24F
FLINT          CLOUDY    27  18  69 S5        30.22F WCI  22
GROSSE ILE     CLOUDY    28  20  74 N5        30.23F WCI  22
HILLSDALE      CLOUDY    25  19  80 CALM      30.21S
HOWELL         CLOUDY    27  20  76 CALM      30.22S

CITY           SKY/WX    TMP DP  RH WIND       PRES   REMARKS
JACKSON        CLOUDY    26  19  74 SW3       30.22F
LAMBERTVILLE   CLOUDY    30  20  67 SW3       30.24F
LANSING        CLOUDY    28  20  71 S7        30.22F WCI  21
LAPEER         FAIR      24  19  80 CALM      30.22F
MASON          PTCLDY    28  23  80 CALM      30.22F
MONROE         CLOUDY    28  22  81 CALM      30.23F
MT. CLEMENS    PTCLDY    26  20  80 CALM      30.22F
PONTIAC        CLOUDY    25  18  74 CALM      30.21S
PORT HOPE        N/A     31  18  58 S3        30.19F
PORT HURON     CLOUDY    25  19  80 CALM      30.23F
TRI CITIES     CLOUDY    29  20  69 S6        30.21F WCI  23
MIDLAND        CLOUDY    30  19  63 S5        30.20F WCI  25
TROY           CLOUDY    30  19  62 CALM      30.25S
SAGINAW HB     PTCLDY    28  21  74 S5        30.21F WCI  23
$$
MIZ043>046-050>051-056>058-064>065-071>073-077>080-230300-
SOUTHWEST LOWER MICHIGAN

CITY           SKY/WX    TMP DP  RH WIND       PRES   REMARKS
BATTLE CREEK   CLOUDY    27  20  75 S7        30.22F WCI  19
BENTON HARBOR  PTCLDY    30  23  75 SE5       30.23F WCI  25
BIG RAPIDS     CLOUDY    29  20  70 SW5       30.16F WCI  24
COLDWATER      CLOUDY    26  22  84 S3        30.22F
FREMONT        CLOUDY    29  23  76 CALM      30.18F
HOLLAND        CLOUDY    32  25  75 S6        30.21F WCI  26
GRAND RAPIDS   MOCLDY    31  23  72 SW7       30.21F WCI  24
IONIA          FAIR      30  22  72 S5        30.19F WCI  25
KALAMAZOO      CLOUDY    29  20  69 SW5       30.22F WCI  24
LUDINGTON      CLOUDY    32  21  63 SW12      30.15F WCI  23
MARSHALL       PTCLDY    26  21  80 CALM      30.21F
MOUNT PLEASANT MOCLDY    31  19  60 S3        30.18F
MUSKEGON       CLOUDY    34  23  64 S8        30.19F WCI  27
SOUTH HAVEN    MOCLDY    32  24  71 S5        30.22F WCI  27
$$
MIZ016>042-230300-
NORTHERN LOWER MICHIGAN

CITY           SKY/WX    TMP DP  RH WIND       PRES   REMARKS
ALPENA         CLOUDY    30  19  63 SW6       30.16F WCI  24
BEAVER ISLAND  CLOUDY    32  23  68 SW12G18   30.11S WCI  23
BELLAIRE       CLOUDY    30  22  70 S5        30.15F WCI  25
CADILLAC       PTCLDY    26  18  74 SW7       30.11F WCI  18
CHARLEVOIX     CLOUDY    31  21  66 S8        30.15F WCI  24
FRANKFORT      CLOUDY    33  24  67 SW8G18    30.14F WCI  26
GAYLORD        CLOUDY    26  16  65 SW9       30.10F WCI  17
GRAYLING       CLOUDY    27  16  63 S5        30.14F WCI  22
HARBOR SPRINGS CLOUDY    31  20  65 SW9G16    30.12F WCI  23
HOUGHTON LAKE  CLOUDY    27  18  69 S7        30.14F WCI  19
MANISTEE       CLOUDY    29  21  72 S5        30.15F WCI  24
OSCODA         CLOUDY    29  16  58 SW3       30.18F
PELLSTON       CLOUDY    30  20  66 S9        30.12F WCI  22
ROGERS CITY    CLOUDY    31  19  63 SW9       30.15F WCI  22
TRAVERSE CITY  CLOUDY    30  19  63 VRB6      30.14F WCI  24
$$
MIZ007>008-015-230300-
EASTERN UPPER MICHIGAN

CITY           SKY/WX    TMP DP  RH WIND       PRES   REMARKS
KINROSS        CLOUDY    28  22  78 SE7       30.09F WCI  21
MACKINAC ISLAN CLOUDY    32  20  62 S13G21    30.09F WCI  22
NEWBERRY       CLOUDY    26  22  82 SW3       30.08S
S. S. MARIE    CLOUDY    27  21  78 CALM      30.09F
MUNISING         N/A     27  17  66 S8        30.07F WCI  19
$$
MIZ004>006-011>014-085-230300-
CENTRAL UPPER MICHIGAN

CITY           SKY/WX    TMP DP  RH WIND       PRES   REMARKS
MANISTIQUE     CLOUDY    29  17  60 SW9G17    30.09F WCI  21
ESCANABA       CLOUDY    27  16  63 SW9       30.10F WCI  18
MENOMINEE      CLOUDY    28  16  60 SW8       30.12  WCI  20
SAWYER-GWINN   CLEAR     23  16  74 S6        30.04F WCI  16
$$
MIZ001>003-009>011-084-230300-
WESTERN UPPER MICHIGAN

CITY           SKY/WX    TMP DP  RH WIND       PRES   REMARKS
IRON MOUNTAIN  PTCLDY    26  12  55 S5        30.04F WCI  20
HOUGHTON       CLOUDY    25  13  60 SW8       29.99F WCI  16
COPPER HARBOR    N/A     27  13  55 VRB7      30.01F WCI  19
IRONWOOD       CLOUDY    22  14  71 SW8       30.03S WCI  12
$$

ABBREVIATIONS USED IN REMARKS
   TC - TEMPERATURE IN CELSIUS
  WCI - WIND CHILL INDEX
   HX - HEAT INDEX
  VSB - VISIBILITY





USA.gov is the U.S. government's official web portal to all federal, state and local government web resources and services.